Location: Morisset
(33.1080°S, 151.4871°E)
Time: 08:39:25
(UTC+00:00)

Cosmos 1758 - Pass Details

Date: 29 October 2020
Orbit: 538 x 563 km, 82.5° (Epoch: 28 November)

Event Time Altitude Azimuth Distance (km) Brightness Sun altitude
Exits shadow 17:34:41 - 4° (N) 1,894 5.8 -16.6°
Reaches altitude 10° 17:34:55 10° 4° (N) 1,801 5.7 -16.6°
Maximum altitude 17:38:50 65° 86° (E) 605 3.7 -15.9°
Drops below altitude 10° 17:42:49 10° 167° (SSE) 1,828 6.6 -15.1°
Sets 17:45:00 0° 170° (S) 2,730 7.4 -14.7°
